Grand Rapids, MI

1:46 PM EST on November 14, 2019 (GMT -0500)
Gerald R. Ford International

Weather History for KGRR - July, 2019

Change the Weather History Date:

Wednesday, July 10, 2019

  Actual Average Record
Temperature  
Mean Temperature 78 °F 73 °F  
Max Temperature 91 °F 83 °F 102 °F (1936)
Min Temperature 64 °F 62 °F 45 °F (1963)
Degree Days  
Heating Degree Days 0 0  
Month to date heating degree days 0 0  
Since 1 June heating degree days 49 45  
Since 1 July heating degree days 0 0  
Cooling Degree Days 13 8  
Month to date cooling degree days 121 77  
Year to date cooling degree days 238 269  
Since 1 June cooling degree days 232 222  
Growing Degree Days 28 (Base 50)    
Moisture  
Dew Point 66 °F    
Average Humidity 67    
Maximum Humidity 81    
Minimum Humidity 52    
Precipitation  
Precipitation 0.01 in 0.12 in 1.48 in (1942)
Month to date precipitation 1.96 1.19  
Year to date precipitation 24.89 18.54  
Snow  
Snow 0.00 in 0.00 in 0.00 in (2006)
Month to date snowfall 0.0 0.0  
Since 1 June snowfall 0.0 0.0  
Since 1 July snowfall 0.0 0.0  
Snow Depth 0.00 in    
Sea Level Pressure  
Sea Level Pressure 29.90 in    
Wind  
Wind Speed 8 mph (SSW)    
Max Wind Speed 16 mph    
Max Gust Speed 23 mph    
Visibility 10 miles    
Events Rain    
T = Trace of Precipitation, MM = Missing Value Source: NWS Daily Summary

Daily Weather History Graph

Daily Weather History Graph

Search for Another Location

Airport or City:

Astronomy

Jul. 10, 2019 Rise Set
Actual Time 6:12 AM EDT 9:21 PM EDT
Civil Twilight 5:38 AM EDT 9:56 PM EDT
Nautical Twilight 4:54 AM EDT 10:40 PM EDT
Astronomical Twilight 4:00 AM EDT 11:33 PM EDT
Moon 3:21 PM EDT (7/10) 1:59 AM EDT (7/10)
Length of Visible Light 16h 17m
Length of Day
15h 08m
Waxing Gibbous, 63% of the Moon is Illuminated
Jul 10
Waxing Gibbous
Jul 16
Full
Jul 24
Last Quarter
Jul 31
New
Aug 7
First Quarter

Hourly Weather History & Observations

Time (EDT) Temp. Heat Index Dew Point Humidity Pressure Visibility Wind Dir Wind Speed Gust Speed Precip Events Conditions
12:53 AM 66.9 °F - 60.1 °F 79% 29.98 in 10.0 mi Calm Calm - N/A   Clear
1:53 AM 66.0 °F - 59.0 °F 78% 29.96 in 10.0 mi SE 5.8 mph - N/A   Clear
2:53 AM 66.0 °F - 57.9 °F 75% 29.96 in 10.0 mi SSE 5.8 mph - N/A   Clear
3:53 AM 64.9 °F - 57.9 °F 78% 29.96 in 10.0 mi SSE 4.6 mph - N/A   Clear
4:53 AM 64.9 °F - 57.9 °F 78% 29.94 in 10.0 mi SSE 9.2 mph - N/A   Clear
5:53 AM 64.9 °F - 57.9 °F 78% 29.94 in 10.0 mi SSE 6.9 mph - N/A   Mostly Cloudy
6:53 AM 68.0 °F - 59.0 °F 73% 29.95 in 10.0 mi SE 4.6 mph - N/A   Overcast
7:53 AM 68.0 °F - 62.1 °F 81% 29.94 in 10.0 mi South 5.8 mph - 0.01 in Rain Light Rain
8:53 AM 71.1 °F - 64.0 °F 78% 29.94 in 10.0 mi South 9.2 mph - 0.00 in   Mostly Cloudy
9:53 AM 75.9 °F - 66.9 °F 74% 29.93 in 10.0 mi SW 8.1 mph - N/A   Mostly Cloudy
10:53 AM 77.0 °F - 68.0 °F 74% 29.93 in 10.0 mi SSW 6.9 mph - N/A   Mostly Cloudy
11:53 AM 82.0 °F 86.3 °F 71.1 °F 69% 29.93 in 10.0 mi Variable 6.9 mph - N/A   Mostly Cloudy
12:53 PM 84.9 °F 91.4 °F 73.0 °F 67% 29.92 in 10.0 mi WSW 9.2 mph - N/A   Scattered Clouds
1:53 PM 86.0 °F 93.0 °F 73.0 °F 65% 29.90 in 10.0 mi WSW 9.2 mph - N/A   Mostly Cloudy
2:53 PM 89.1 °F 98.0 °F 73.9 °F 61% 29.89 in 10.0 mi West 10.4 mph - N/A   Mostly Cloudy
3:53 PM 88.0 °F 94.7 °F 72.0 °F 59% 29.88 in 10.0 mi SSW 8.1 mph - N/A   Scattered Clouds
4:53 PM 89.1 °F 96.0 °F 72.0 °F 57% 29.86 in 10.0 mi SSW 10.4 mph 16.1 mph N/A   Scattered Clouds
5:53 PM 89.1 °F 94.1 °F 70.0 °F 53% 29.85 in 10.0 mi SSW 12.7 mph - N/A   Partly Cloudy
6:53 PM 89.1 °F 93.7 °F 69.1 °F 52% 29.84 in 10.0 mi SW 13.8 mph 21.9 mph N/A   Partly Cloudy
7:53 PM 87.1 °F 90.6 °F 68.0 °F 53% 29.83 in 10.0 mi SW 9.2 mph - N/A   Partly Cloudy
8:53 PM 84.9 °F 88.2 °F 68.0 °F 57% 29.82 in 10.0 mi SSW 8.1 mph - N/A   Partly Cloudy
9:53 PM 80.1 °F 82.9 °F 69.1 °F 69% 29.83 in 10.0 mi South 5.8 mph - N/A   Partly Cloudy
10:53 PM 81.0 °F 84.1 °F 69.1 °F 67% 29.83 in 10.0 mi SSW 9.2 mph - N/A   Partly Cloudy
11:53 PM 81.0 °F 83.8 °F 68.0 °F 65% 29.84 in 10.0 mi West 11.5 mph - N/A   Partly Cloudy